Simultaneous Nadir Overpasses (SNOs) Predictions

Prediction of SNOs between NOAA-19 and METOP-C Satellite Orbit:

Table of predicted SNOs for the next 14.0 days since TLE Epoch: 2/13/2021
Index Date (NOAA-19) Time (NOAA-19) Lat,Lon (NOAA-19) SZA (NOAA-19 ) Date (METOP-C) Time (METOP-C) Lat,Lon (METOP-C) SZA (METOP-C ) Distance(km) Time Diff (sec)
1 02/15/2021 01:18:40 -80.37, 7.19 86.27 02/15/2021 01:19:51 -80.39, 7.10 86.23 2.88 71
2 02/15/2021 02:09:43 80.37, 174.45 93.73 02/15/2021 02:10:31 80.38, 174.29 93.74 3.19 48
3 02/15/2021 03:00:41 -80.38, -18.50 86.29 02/15/2021 03:01:13 -80.38, -18.37 86.28 2.30 32
4 02/15/2021 03:51:44 80.38, 148.75 93.70 02/15/2021 03:51:53 80.37, 148.82 93.70 1.67 9
5 02/15/2021 04:42:41 -80.37, -43.85 86.32 02/15/2021 04:42:35 -80.37, -43.84 86.32 0.26 6
6 02/15/2021 05:33:44 80.37, 123.40 93.68 02/15/2021 05:33:15 80.36, 123.35 93.65 1.79 29
7 02/15/2021 06:24:41 -80.36, -69.20 86.34 02/15/2021 06:23:57 -80.36, -69.31 86.36 2.17 44
8 02/15/2021 07:15:44 80.36, 98.04 93.66 02/15/2021 07:14:36 80.37, 98.20 93.66 3.06 68
9 02/26/2021 03:22:45 80.40, 156.05 89.79 02/26/2021 03:23:55 80.39, 156.04 89.80 1.52 70
10 02/26/2021 04:13:45 -80.39, -36.56 90.22 02/26/2021 04:14:37 -80.39, -36.58 90.21 0.42 52
11 02/26/2021 05:04:45 80.39, 130.69 89.77 02/26/2021 05:05:17 80.37, 130.56 89.76 3.03 32
12 02/26/2021 05:55:45 -80.38, -61.92 90.25 02/26/2021 05:55:59 -80.38, -62.06 90.26 2.65 14
13 02/26/2021 06:46:45 80.38, 105.34 89.75 02/26/2021 06:46:38 80.39, 105.41 89.76 1.58 7
14 02/26/2021 07:37:45 -80.38, -87.27 90.27 02/26/2021 07:37:20 -80.39, -87.21 90.26 2.33 25
15 02/26/2021 08:28:45 80.38, 79.98 89.72 02/26/2021 08:28:00 80.38, 79.94 89.71 0.78 45



Historial Predications of SNOs between NOAA-19 and METOP-C
